Date,TemperatureHighF,TemperatureAvgF,TemperatureLowF,DewpointHighF,DewpointAvgF,DewpointLowF,HumidityHigh,HumidityAvg,HumidityLow,PressureMaxIn,PressureMinIn,WindSpeedMaxMPH,WindSpeedAvgMPH,GustSpeedMaxMPH,PrecipitationSumIn
2013-1-1,26,14,3,26,9,-2,98,82,65,29.74,29.52,9,3,19,0.00
2013-1-2,14,2,-13,8,-2,-18,88,80,68,30.00,29.67,11,2,21,0.00
2013-1-3,10,-2,-13,0,-9,-18,83,74,55,30.00,29.73,5,1,11,0.00
2013-1-4,31,21,3,25,18,-2,95,87,68,29.74,29.58,10,2,17,0.00
2013-1-5,27,19,8,24,14,4,90,79,63,30.08,29.63,14,3,28,0.00
2013-1-6,29,23,13,29,20,8,99,89,80,30.04,29.75,6,1,10,0.00
2013-1-7,30,18,11,29,14,6,98,84,67,30.19,29.80,6,2,13,0.00
2013-1-8,36,22,14,24,17,10,94,81,58,30.22,30.02,7,2,14,0.00
2013-1-9,37,28,18,30,23,17,96,82,66,30.23,29.79,10,3,19,0.00
2013-1-10,39,32,24,30,25,19,96,76,61,30.40,29.84,14,4,27,0.00
2013-1-11,36,24,16,23,19,14,94,81,58,30.40,30.11,8,2,15,0.00
2013-1-12,71,56,43,71,56,42,99,99,99,29.94,29.70,1,0,2,0.00
2013-1-13,70,42,32,70,41,31,99,99,95,29.96,29.75,10,2,14,0.00
2013-1-14,50,39,29,48,34,22,99,84,46,30.07,29.66,9,2,17,0.01
2013-1-15,30,26,20,24,19,15,84,75,60,30.11,30.01,6,1,11,0.00
2013-1-16,29,24,22,26,22,18,99,92,81,30.02,29.57,5,1,10,0.00
2013-1-17,29,16,1,27,10,-8,99,76,46,29.90,29.57,11,2,21,0.00
2013-1-18,15,2,-12,-2,-10,-20,68,56,37,30.07,29.86,10,2,18,0.00
2013-1-19,32,21,7,25,17,-2,92,83,66,30.00,29.58,8,2,13,0.00
2013-1-20,40,27,9,32,20,5,90,73,52,29.68,29.27,14,4,31,0.01
2013-1-21,21,7,-8,6,0,-12,85,72,39,29.78,29.55,5,1,11,0.00
2013-1-22,17,4,-7,8,-3,-17,85,72,51,29.76,29.53,8,2,18,0.00
2013-1-23,2,-10,-18,-13,-20,-27,76,62,39,29.84,29.74,8,2,14,0.00
2013-1-24,8,-8,-21,-11,-18,-28,74,60,33,30.01,29.78,12,3,23,0.01
2013-1-25,13,0,-11,-3,-9,-16,80,65,43,30.03,29.81,7,2,13,0.00
2013-1-26,16,4,-3,2,-4,-10,85,68,38,29.97,29.79,9,2,17,0.00
2013-1-27,19,5,-3,2,-6,-13,85,62,32,30.22,29.96,9,2,17,0.00
2013-1-28,17,9,-1,14,2,-10,93,74,35,30.19,29.79,7,2,11,0.00
2013-1-29,31,21,8,29,18,6,99,90,75,29.96,29.81,8,2,16,0.00
2013-1-30,51,39,29,49,39,29,99,99,99,29.84,29.21,10,3,17,0.14
2013-1-31,46,45,0,46,46,46,99,97,99,29.27,28.72,4,4,10,0.14
2013-2-1,0,0,0,46,46,46,0,0,100,29.82,29.26,0,0,0,0.14
2013-2-2,70,29,0,70,55,42,99,45,99,30.09,29.80,1,0,2,0.14
2013-2-3,68,68,68,67,67,67,99,99,99,29.92,29.63,0,0,1,0.00
2013-2-4,68,68,68,67,67,67,99,99,99,29.78,29.61,0,0,1,0.00
2013-2-5,68,68,68,67,67,67,99,99,99,29.90,29.77,0,0,1,0.00
2013-2-6,68,68,68,67,67,67,99,99,99,30.20,29.78,0,0,1,0.00
2013-2-7,68,68,68,67,67,67,99,99,99,30.40,30.19,0,0,1,0.00
2013-2-8,68,68,68,67,67,67,99,99,99,30.32,29.82,0,0,1,0.00
2013-2-9,68,68,68,67,67,67,99,99,99,30.18,29.80,0,0,1,0.00
2013-2-10,68,68,68,67,67,67,99,99,99,30.32,30.18,0,0,1,0.00
2013-2-11,68,68,68,67,67,67,99,99,99,30.20,29.55,0,0,1,0.00
2013-2-12,68,68,68,67,67,67,99,99,99,29.77,29.54,0,0,1,0.00
2013-2-13,68,68,68,67,67,67,99,99,99,29.77,29.69,0,0,1,0.00
2013-2-14,68,68,68,67,67,67,99,99,99,29.90,29.67,0,0,1,0.00
2013-2-15,68,68,68,67,67,67,99,99,99,29.90,29.81,0,0,1,0.00
2013-2-16,68,68,68,67,67,67,99,99,99,29.91,29.78,0,0,1,0.00
2013-2-17,68,68,68,67,67,67,99,99,99,29.78,29.50,0,0,1,0.00
2013-2-18,68,68,68,67,67,67,99,99,99,30.03,29.65,0,0,1,0.00
2013-2-19,68,68,68,67,67,67,99,99,99,30.04,29.54,0,0,1,0.00
2013-2-20,68,68,68,67,67,67,99,99,99,29.65,29.51,0,0,1,0.00
2013-2-21,68,68,68,67,67,67,99,99,99,31.99,29.64,0,0,1,0.00
2013-2-22,68,68,68,67,67,67,99,99,99,30.32,30.19,0,0,1,0.00
2013-2-23,70,67,43,70,66,42,99,99,99,29.96,29.73,1,0,2,0.00
2013-2-24,68,68,68,67,67,67,99,99,99,29.73,29.58,0,0,1,0.00
2013-2-25,68,68,68,67,67,67,99,99,99,30.02,29.73,0,0,1,0.00
2013-2-26,68,68,68,67,67,67,99,99,99,30.11,29.95,0,0,1,0.00
2013-2-27,68,68,68,67,67,67,99,99,99,29.95,29.46,0,0,1,0.00
2013-2-28,68,68,68,67,67,67,99,99,99,29.47,29.40,0,0,1,0.00
2013-3-1,68,68,68,67,67,67,99,99,99,29.55,29.40,0,0,1,0.00
2013-3-2,68,68,68,67,67,67,99,99,99,29.55,29.50,0,0,1,0.00
2013-3-3,68,68,68,67,67,67,99,99,99,29.51,29.44,0,0,1,0.00
2013-3-4,68,68,68,67,67,67,99,99,99,29.65,29.45,0,0,1,0.00
2013-3-5,68,68,68,67,67,67,99,99,99,29.90,29.65,0,0,1,0.00
2013-3-6,68,68,68,67,67,67,99,99,99,30.00,29.89,0,0,1,0.00
2013-3-7,68,68,68,67,67,67,99,99,99,29.99,29.91,0,0,1,0.00
2013-3-8,68,68,68,67,67,67,99,99,99,30.09,29.90,0,0,1,0.00
2013-3-9,68,68,68,67,67,67,99,99,99,30.14,30.05,0,0,1,0.00
2013-3-10,68,68,68,67,67,67,99,99,99,30.14,29.99,0,0,1,0.00
2013-3-11,68,24,0,67,67,67,99,36,99,30.03,29.85,0,0,1,0.00
2013-3-12,0,0,0,67,67,67,0,0,100,29.85,29.55,0,0,0,0.00
2013-3-13,0,0,0,67,67,67,0,0,100,29.64,29.55,0,0,0,0.00
2013-3-14,0,0,0,67,67,67,0,0,100,29.64,29.51,0,0,0,0.00
2013-3-15,0,0,0,67,67,67,0,0,100,29.64,29.38,0,0,0,0.00
2013-3-16,0,0,0,67,67,67,0,0,100,29.68,29.48,0,0,0,0.00
2013-3-17,0,0,0,67,67,67,0,0,100,30.08,29.67,0,0,0,0.00
2013-3-18,0,0,0,67,67,67,0,0,100,30.17,29.92,0,0,0,0.00
2013-3-19,0,0,0,67,67,67,0,0,100,29.93,29.52,0,0,0,0.00
2013-3-20,0,0,0,67,67,67,0,0,100,29.52,29.44,0,0,0,0.00
2013-3-21,0,0,0,67,67,67,0,0,100,29.52,29.42,0,0,0,0.00
2013-3-22,0,0,0,67,67,67,0,0,100,29.52,29.43,0,0,0,0.00
2013-3-23,0,0,0,67,67,67,0,0,100,29.58,29.42,0,0,0,0.00
2013-3-24,0,0,0,67,67,67,0,0,100,29.66,29.57,0,0,0,0.00
2013-3-25,0,0,0,67,67,67,0,0,100,29.63,29.41,0,0,0,0.00
2013-3-26,0,0,0,67,67,67,0,0,100,29.62,29.44,0,0,0,0.00
2013-3-27,0,0,0,67,67,67,0,0,100,29.74,29.59,0,0,0,0.00
2013-3-28,0,0,0,67,67,67,0,0,100,29.87,29.73,0,0,0,0.00
2013-3-29,0,0,0,67,67,67,0,0,100,29.89,29.82,0,0,0,0.00
2013-3-30,0,0,0,67,67,67,0,0,100,29.92,29.86,0,0,0,0.00
2013-3-31,0,0,0,67,67,67,0,0,100,29.91,29.59,0,0,0,0.00
2013-4-1,0,0,0,67,67,67,0,0,100,29.59,29.36,0,0,0,0.00
2013-4-2,0,0,0,67,67,67,0,0,100,29.63,29.53,0,0,0,0.00
2013-4-3,0,0,0,67,67,67,0,0,100,29.93,29.62,0,0,0,0.00
2013-4-4,70,16,0,70,48,-9,99,13,10,30.03,29.82,5,0,12,0.00
2013-4-5,48,36,25,24,11,-7,65,38,12,29.82,29.67,11,3,19,0.00
2013-4-6,36,26,17,10,-7,-20,67,27,10,30.17,29.80,12,4,24,0.00
2013-4-7,52,38,27,27,2,-16,57,24,10,30.15,29.78,13,4,24,0.00
2013-4-8,52,42,35,30,23,13,67,49,24,30.04,29.80,8,2,14,0.00
2013-4-9,44,40,35,41,35,19,94,81,37,29.96,29.77,9,2,17,0.24
2013-4-10,45,39,36,42,37,33,98,91,81,29.92,29.83,4,1,7,0.14
2013-4-11,39,34,29,34,17,3,94,53,27,30.07,29.82,9,2,17,0.01
2013-4-12,30,28,26,28,21,9,92,76,41,30.08,29.74,11,3,21,0.00
2013-4-13,49,36,30,36,30,27,94,80,44,29.81,29.69,6,0,9,0.17
2013-4-14,43,35,29,36,29,24,94,79,57,30.10,29.78,8,1,13,0.05
2013-4-15,53,41,25,32,23,15,88,54,22,30.24,30.10,9,2,15,0.00
2013-4-16,52,46,39,51,36,26,98,70,43,30.20,29.88,11,3,19,0.24
2013-4-17,52,43,32,42,25,16,84,52,26,30.27,29.96,99,3,99,0.00
2013-4-18,56,43,30,28,20,12,65,42,29,30.28,29.93,12,4,68,0.02
2013-4-19,71,58,48,59,49,27,94,72,41,29.93,29.46,14,5,22,0.35
2013-4-20,50,41,30,46,27,13,93,62,26,30.12,29.57,11,2,19,0.17
2013-4-21,43,33,24,19,9,-3,72,41,15,30.56,30.11,8,3,17,0.00
2013-4-22,52,38,25,17,3,-10,56,29,10,30.60,30.45,16,4,21,0.00
2013-4-23,44,36,24,32,24,15,82,61,37,30.46,30.06,11,3,17,0.00
2013-4-24,73,53,30,40,30,12,91,52,10,30.06,29.62,11,2,16,0.00
2013-4-25,60,45,32,48,24,2,81,46,13,30.21,29.62,9,3,21,0.04
2013-4-26,55,42,30,29,20,9,68,44,17,30.34,30.19,11,2,14,0.00
2013-4-27,61,46,31,37,22,2,86,47,10,30.34,30.21,7,2,12,0.00
2013-4-28,68,53,34,27,16,5,61,29,10,30.24,30.08,9,3,15,0.00
2013-4-29,69,55,43,32,26,14,58,35,13,30.15,30.07,12,2,21,0.00
2013-4-30,70,59,47,41,33,23,70,41,19,30.24,30.14,11,1,14,0.00
2013-5-1,75,61,41,28,17,5,49,21,10,30.36,30.23,9,2,15,0.00
2013-5-2,79,62,45,38,25,10,52,28,10,30.36,30.26,8,2,14,0.00
2013-5-3,68,54,35,34,26,18,68,36,17,30.41,30.26,13,2,19,0.00
2013-5-4,73,59,42,43,24,9,79,35,10,30.28,30.12,11,2,17,0.00
2013-5-5,74,59,39,31,20,8,64,28,10,30.18,30.07,11,2,14,0.00
2013-5-6,76,61,40,34,19,4,67,26,10,30.13,30.01,9,2,14,0.00
2013-5-7,81,65,45,35,22,12,53,23,10,30.07,29.99,7,1,14,0.00
2013-5-8,77,63,51,55,47,28,88,59,22,30.12,29.99,14,4,22,0.01
2013-5-9,71,61,54,56,53,42,95,78,36,29.99,29.83,8,2,16,0.30
2013-5-10,71,60,52,58,53,48,97,80,44,29.92,29.79,6,1,10,0.01
2013-5-11,63,58,50,61,56,47,99,90,83,29.80,29.59,7,2,12,0.12
2013-5-12,62,50,38,48,38,22,93,65,32,29.67,29.53,5,1,12,0.00
2013-5-13,48,40,35,29,23,19,74,51,32,29.92,29.64,8,2,17,0.00
2013-5-14,53,41,29,31,19,0,89,49,11,29.95,29.86,8,2,18,0.00
2013-5-15,63,45,29,47,28,6,95,58,11,29.91,29.54,12,4,23,0.08
2013-5-16,73,55,42,50,36,12,99,58,10,29.77,29.52,8,2,21,0.00
2013-5-17,61,50,42,40,34,26,87,58,28,30.12,29.77,8,2,16,0.00
2013-5-18,68,54,37,42,30,13,87,47,12,30.19,30.11,6,1,9,0.00
2013-5-19,66,55,46,51,44,35,97,68,38,30.20,30.04,8,2,14,0.28
2013-5-20,66,56,51,61,55,50,99,95,79,30.04,29.91,8,1,11,0.05
2013-5-21,70,60,50,66,57,50,99,91,69,29.95,29.80,14,2,24,0.52
2013-5-22,69,58,49,66,56,48,99,96,79,29.86,29.76,10,3,16,0.43
2013-5-23,76,63,56,68,61,56,99,92,57,29.78,29.70,8,3,17,0.33
2013-5-24,61,49,42,60,48,41,99,99,97,29.86,29.62,9,2,16,0.64
2013-5-25,42,38,32,41,37,32,99,98,95,29.85,29.70,11,3,30,0.69
2013-5-26,47,38,33,40,36,32,99,91,73,29.94,29.67,11,2,18,0.20
2013-5-27,62,47,32,42,31,20,99,63,21,31.52,29.91,10,2,19,0.01
2013-5-28,69,55,36,41,31,10,87,48,12,30.12,30.03,8,2,14,0.00
2013-5-29,58,54,49,57,50,36,99,88,53,30.06,29.88,8,3,15,0.19
2013-5-30,82,69,56,65,60,56,99,76,42,30.03,29.91,8,1,15,0.00
2013-5-31,88,74,59,65,60,56,95,66,36,30.03,29.89,7,1,11,0.00
2013-6-1,88,75,63,65,61,51,94,65,29,29.93,29.80,9,1,17,0.00
2013-6-2,86,72,63,71,65,61,97,81,46,29.84,29.65,8,2,23,0.12
2013-6-4,51,50,48,42,41,39,72,70,68,30.01,29.97,3,1,10,0.00
2013-6-5,68,54,39,41,33,17,89,52,16,30.10,30.01,6,1,11,0.00
2013-6-6,67,55,47,50,42,37,90,64,36,30.10,30.00,8,2,13,0.02
2013-6-7,53,50,49,50,49,19,99,96,79,30.01,29.81,101,3,101,0.59
2013-6-8,62,55,50,58,54,49,99,95,87,29.94,29.67,4,1,9,0.28
2013-6-9,73,60,51,59,53,47,99,79,40,30.12,29.93,6,1,13,0.00
2013-6-10,72,59,47,58,49,33,98,74,25,30.13,29.92,6,2,11,0.06
2013-6-11,57,54,21,57,53,10,99,99,95,29.92,29.52,99,2,99,1.24
2013-6-12,62,55,51,54,52,-10,99,90,70,29.78,29.53,97,2,99,0.07
2013-6-13,66,56,45,55,49,8,99,79,45,29.76,29.64,97,1,97,0.01
2013-6-14,74,61,51,56,49,33,99,69,25,29.77,29.62,6,1,14,0.00
2013-6-15,71,58,43,47,39,26,88,55,20,29.87,29.77,147,1,147,0.00
2013-6-16,70,59,50,58,50,42,98,75,45,29.85,29.64,6,1,12,0.25
2013-6-17,74,60,51,62,56,50,99,86,53,29.86,29.69,4,0,8,0.12
2013-6-18,67,56,47,51,46,38,97,72,37,29.91,29.83,5,1,8,0.00
2013-6-19,68,55,44,43,38,27,88,57,26,30.10,29.90,7,2,14,0.00
2013-6-20,73,58,41,49,40,27,93,56,20,30.17,30.09,5,2,11,0.09
2013-6-21,79,64,49,51,45,40,81,55,27,30.18,30.12,4,1,10,0.00
2013-6-22,79,65,57,64,57,49,99,76,48,30.16,30.06,5,1,8,0.35
2013-6-23,83,70,62,72,66,62,99,91,64,30.07,29.94,10,1,16,0.59
2013-6-24,87,72,64,71,66,62,99,84,48,29.95,29.87,5,1,11,0.22
2013-6-25,86,70,61,72,65,60,99,87,44,29.90,29.73,7,0,12,1.02
2013-6-26,73,66,63,70,66,63,99,97,84,29.81,29.72,3,0,7,0.28
2013-6-27,79,69,63,70,66,61,99,89,60,29.79,29.72,7,2,11,0.00
2013-6-28,73,65,58,68,63,58,99,95,78,29.72,29.43,13,4,22,0.76
2013-6-29,78,68,62,69,64,61,99,89,57,29.66,29.47,8,1,12,0.08
2013-6-30,82,71,61,66,62,56,99,76,43,29.91,29.65,4,1,10,0.07
2013-7-1,73,67,61,70,65,59,99,94,84,30.04,29.90,4,0,9,0.89
2013-7-2,70,65,60,70,64,60,99,99,97,30.11,30.01,8,2,11,1.02
2013-7-3,84,70,62,77,68,61,99,93,65,30.15,30.07,4,1,8,0.11
2013-7-4,86,73,65,75,69,65,99,90,59,30.16,30.07,4,0,11,0.70
2013-7-5,86,74,65,72,68,-34,99,84,48,30.12,30.02,6,0,11,0.06
2013-7-6,83,72,66,74,66,11,99,83,10,30.05,29.98,4,0,11,0.04
2013-7-7,83,72,64,65,62,58,91,73,47,30.01,29.91,5,0,8,0.00
2013-7-8,77,70,66,72,68,65,99,93,73,30.03,29.92,4,0,8,1.57
2013-7-9,79,70,66,72,67,65,99,90,64,30.06,29.99,7,2,12,0.00
2013-7-10,71,68,66,69,67,65,99,98,94,30.01,29.74,9,3,15,0.21
2013-7-11,79,69,58,70,62,53,99,80,41,29.99,29.73,7,1,11,0.07
2013-7-12,80,67,54,56,52,42,90,62,29,30.17,29.99,5,1,8,0.00
2013-7-13,78,68,58,62,58,52,94,72,43,30.27,30.17,7,2,11,0.00
2013-7-14,84,73,64,69,65,61,97,80,49,30.28,30.20,4,0,7,0.00
2013-7-15,88,75,64,72,62,50,99,70,30,30.21,30.13,6,1,11,0.00
2013-7-16,86,75,64,67,63,57,94,69,40,30.19,30.15,5,1,13,0.00
2013-7-17,91,76,64,69,64,55,98,70,32,30.18,29.95,11,1,21,1.56
2013-7-18,86,74,66,73,68,65,99,84,52,30.03,29.93,4,0,8,0.01
2013-7-19,89,77,67,75,68,62,99,78,45,29.93,29.67,9,1,21,0.06
2013-7-20,80,71,63,71,63,51,98,76,47,29.81,29.64,8,1,15,0.12
2013-7-21,75,65,55,58,52,-27,93,66,39,30.00,29.80,6,1,11,0.00
2013-7-22,77,64,51,64,56,47,93,77,49,30.00,29.86,8,2,12,0.00
2013-7-23,73,66,62,69,64,6,99,96,10,29.86,29.55,5,1,29,0.81
2013-7-24,65,60,51,64,56,6,99,88,66,29.98,29.56,7,1,14,0.24
2013-7-25,70,58,44,53,46,41,94,68,42,30.08,29.97,6,1,8,0.00
2013-7-26,71,62,54,57,54,50,92,75,54,30.06,29.95,5,1,11,0.00
2013-7-27,80,66,52,60,52,35,98,66,22,30.00,29.94,5,1,7,0.00
2013-7-28,76,67,61,65,61,56,98,81,56,29.97,29.91,10,3,19,0.05
2013-7-29,80,69,62,66,58,41,99,73,26,30.03,29.92,7,1,14,0.13
2013-7-30,73,64,55,57,52,42,91,68,37,30.07,30.01,4,1,8,0.00
2013-7-31,78,65,51,59,49,32,96,63,19,30.09,29.99,5,1,8,0.00
2013-8-1,77,65,56,62,57,51,99,78,43,29.99,29.79,10,3,17,0.08
2013-8-2,77,66,57,65,55,39,99,74,26,29.81,29.75,6,1,14,0.06
2013-8-3,71,62,55,60,54,48,99,79,49,29.80,29.73,5,1,12,0.08
2013-8-4,68,59,53,58,52,47,98,79,51,29.85,29.75,7,1,14,0.07
2013-8-5,68,57,48,51,39,8,92,59,10,29.99,29.85,8,2,16,0.04
2013-8-6,72,60,46,52,44,34,93,62,27,30.08,27.03,8,1,13,0.00
2013-8-7,77,65,55,57,51,45,84,63,37,30.10,29.98,10,3,16,0.00
2013-8-8,79,69,62,70,63,53,96,83,60,29.99,29.93,7,2,14,0.04
2013-8-9,75,68,-6,71,68,-6,99,98,10,29.95,29.75,100,2,100,0.87
2013-8-10,72,64,51,65,49,10,99,66,12,29.97,29.76,8,2,15,0.01
2013-8-11,74,61,49,53,47,34,93,65,24,30.02,29.94,4,1,9,0.00
2013-8-12,77,64,52,55,50,33,95,65,22,29.97,29.20,175,1,175,0.00
2013-8-13,69,62,57,63,59,53,99,90,81,29.87,29.64,8,2,11,0.14
2013-8-14,68,58,50,60,52,45,99,83,46,29.88,29.63,7,1,14,0.06
2013-8-15,72,58,46,52,45,33,98,68,26,30.04,29.88,6,1,13,0.01
2013-8-16,76,61,48,55,47,33,93,66,23,30.17,30.02,4,1,8,0.06
2013-8-17,73,61,50,60,49,38,99,71,31,30.24,30.16,7,1,10,0.01
2013-8-18,76,62,51,57,49,30,92,69,21,30.23,30.03,3,1,8,0.00
2013-8-19,80,66,52,59,54,43,97,70,30,30.04,29.94,5,1,12,0.00
2013-8-20,81,68,56,63,55,42,97,69,25,30.06,29.97,4,1,8,0.00
2013-8-21,84,70,58,64,58,45,97,69,26,30.11,29.99,4,1,9,0.00
2013-8-22,85,70,60,63,58,46,95,71,28,30.00,29.82,5,1,11,0.05
2013-8-23,72,62,52,62,50,35,98,69,26,30.15,29.85,7,1,13,0.02
2013-8-24,76,59,43,53,37,12,94,57,10,30.31,30.15,5,2,10,0.00
2013-8-25,76,61,0,56,45,19,94,61,16,30.32,30.12,4,1,8,0.01
2013-8-26,72,65,59,65,61,2,97,89,74,30.13,29.87,3,0,7,0.08
2013-8-27,80,71,64,68,64,59,99,82,51,29.92,29.86,6,1,8,0.00
2013-8-28,83,70,-12,69,62,-19,99,80,42,29.98,29.87,8,1,11,0.01
2013-8-29,75,66,58,64,61,56,99,86,57,30.06,29.96,6,1,11,0.00
2013-8-30,83,70,62,67,62,-24,99,80,39,30.00,29.78,6,0,10,0.14
2013-8-31,76,68,65,69,66,62,99,94,66,29.81,29.77,97,0,97,0.18
2013-9-1,81,70,-13,71,64,-25,99,84,47,29.88,29.78,6,1,8,0.11
2013-9-2,113,69,62,71,67,-6,99,95,78,29.86,29.70,8,3,100,0.48
2013-9-3,73,64,58,66,60,55,99,89,56,29.78,29.69,97,1,97,0.02
2013-9-4,112,62,55,70,54,8,99,80,31,29.89,29.78,5,1,101,0.46
2013-9-5,73,53,39,58,38,-30,99,64,15,30.10,29.85,97,2,97,0.24
2013-9-6,65,52,6,57,27,-25,96,49,10,30.17,30.00,147,2,147,0.09
2013-9-7,72,62,26,52,33,-23,79,37,10,30.00,29.79,49,1,49,0.09
2013-9-8,59,53,40,52,40,27,96,63,36,30.02,29.71,9,2,103,0.18
2013-9-9,72,39,27,41,34,-14,92,83,10,30.12,29.32,5,1,8,0.00
2013-9-10,68,58,47,66,56,41,99,94,64,29.89,29.81,6,2,10,0.19
2013-9-11,90,74,64,77,66,56,99,82,33,29.87,29.76,8,1,21,0.24
2013-9-12,77,67,63,70,66,63,99,95,75,29.81,29.50,8,1,12,0.51
2013-9-13,64,57,50,63,56,50,99,99,99,29.63,29.45,6,2,13,1.15
2013-9-14,57,50,42,52,48,41,99,93,73,29.86,29.61,7,2,14,0.09
2013-9-15,69,52,38,52,44,34,99,77,31,29.91,29.81,4,1,9,0.00
2013-9-16,54,48,35,52,41,25,99,80,42,30.07,29.80,6,1,13,0.08
2013-9-17,63,45,32,39,30,9,96,64,14,30.20,30.06,6,2,11,0.00
2013-9-18,71,52,38,47,34,9,98,63,10,30.09,29.93,4,1,8,0.00
2013-9-19,76,57,43,54,38,12,99,63,10,29.94,29.85,4,1,7,0.00
2013-9-20,76,62,48,56,45,22,97,62,14,29.90,29.77,8,2,14,0.00
2013-9-21,70,61,54,62,52,19,99,78,17,29.77,29.45,12,5,21,0.01
2013-9-22,64,54,43,61,50,39,99,89,64,29.65,29.38,7,2,14,0.58
2013-9-23,47,43,40,40,36,34,88,77,62,29.80,29.63,7,2,15,0.01
2013-9-24,59,47,41,42,35,22,81,65,25,29.78,29.67,8,2,16,0.00
2013-9-25,59,51,47,45,42,36,87,72,43,29.80,29.69,6,1,11,0.00
2013-9-26,63,51,41,46,42,33,93,73,34,29.95,29.80,7,1,13,0.00
2013-9-27,70,55,48,48,44,26,91,71,22,30.08,29.95,6,1,8,0.00
2013-9-28,74,56,43,55,41,13,99,67,11,30.16,30.05,7,2,10,0.00
2013-9-29,73,57,45,53,41,20,98,62,16,30.05,29.88,8,1,12,0.00
2013-9-30,71,55,42,50,40,19,97,65,14,29.90,29.78,9,2,12,0.00
2013-10-1,75,57,44,55,44,24,98,69,16,29.80,29.70,5,2,11,0.00
2013-10-2,74,61,49,58,48,31,99,67,31,29.77,29.65,5,1,13,0.00
2013-10-3,73,58,44,47,33,10,85,48,10,29.90,29.77,4,1,9,0.00
2013-10-4,65,54,44,53,42,32,94,66,31,29.91,29.84,4,1,7,0.00
2013-10-5,62,54,46,46,39,28,83,58,29,29.94,29.87,4,1,8,0.00
2013-10-6,53,48,45,47,35,22,99,65,34,29.96,29.86,9,3,15,0.25
2013-10-7,63,54,48,63,54,47,99,99,93,29.86,29.44,13,3,31,0.51
2013-10-8,59,48,36,48,28,0,93,54,10,30.14,29.67,8,2,17,0.00
2013-10-9,65,46,33,40,23,2,89,51,10,30.21,30.11,6,2,11,0.00
2013-10-10,68,50,36,42,29,7,87,53,10,30.11,29.97,4,1,6,0.00
2013-10-11,74,55,42,40,25,6,70,39,10,29.97,29.92,4,2,6,0.00
2013-10-12,71,55,45,46,36,25,86,54,18,30.14,29.96,7,2,12,0.00
2013-10-13,63,52,44,46,39,27,89,65,26,30.18,30.10,8,2,14,0.00
2013-10-14,53,49,45,52,48,42,99,97,89,30.11,30.00,6,1,11,0.12
2013-10-15,63,54,45,56,49,44,99,85,51,30.04,29.92,8,1,15,0.01
2013-10-16,66,54,50,52,45,37,95,71,40,29.92,29.62,8,3,17,0.01
2013-10-17,66,54,46,57,44,28,99,75,24,29.63,29.48,8,1,13,0.11
2013-10-18,59,51,44,52,40,22,99,70,35,29.64,29.39,7,2,12,0.40
2013-10-19,64,49,37,38,28,5,85,49,10,29.68,29.46,8,2,14,0.00
2013-10-20,54,47,42,44,25,-1,90,49,12,29.73,29.41,8,3,14,0.12
2013-10-21,62,48,33,36,23,7,84,43,11,29.81,29.66,7,2,12,0.00
2013-10-22,54,45,31,42,32,19,87,61,33,29.67,29.44,8,2,14,0.13
2013-10-23,51,38,29,31,19,0,82,51,14,29.52,29.36,5,1,116,0.01
2013-10-24,43,36,29,30,21,5,86,60,20,29.58,29.39,7,1,17,0.06
2013-10-25,37,34,32,30,24,16,89,69,44,29.82,29.57,7,1,16,0.11
2013-10-26,41,34,27,30,22,5,80,63,23,29.82,29.54,9,1,18,0.02
2013-10-27,44,38,34,30,22,11,69,53,29,29.72,29.47,8,2,17,0.01
2013-10-28,44,34,25,31,18,2,72,52,24,30.06,29.71,10,2,17,0.01
2013-10-29,42,28,18,19,6,-12,72,43,12,30.14,30.05,6,2,9,0.00
2013-10-30,43,33,24,25,14,-4,73,47,23,30.06,29.93,6,1,9,0.00
2013-10-31,52,42,31,52,38,24,99,86,69,29.97,29.47,9,3,16,0.31
2013-11-1,64,56,47,60,45,19,99,71,21,29.47,29.03,10,3,28,0.28
2013-11-2,51,44,33,39,34,27,84,67,42,29.62,29.40,10,1,19,0.02
2013-11-3,38,28,18,27,4,-18,82,41,10,30.18,29.62,8,3,17,0.00
2013-11-4,39,25,14,8,-3,-18,61,35,10,30.37,30.17,5,2,11,0.00
2013-11-5,43,34,23,15,0,-15,46,26,10,30.38,30.19,9,2,14,0.00
2013-11-6,52,43,32,34,26,15,72,52,30,30.19,29.68,8,3,14,0.00
2013-11-7,52,42,31,51,36,19,99,79,60,29.68,29.51,8,2,15,0.39
2013-11-8,38,31,28,24,18,9,77,58,42,29.79,29.56,8,2,18,0.00
2013-11-9,35,31,28,21,8,2,68,38,25,29.89,29.71,8,2,17,0.01
2013-11-10,41,34,30,36,31,22,93,87,70,29.71,29.46,7,2,13,0.15
2013-11-11,32,31,30,29,28,26,89,87,84,29.70,29.59,0,0,0,0.00
2013-11-12,72,42,18,67,34,6,99,76,55,29.95,29.36,10,4,20,0.76
2013-11-13,30,20,14,6,-1,-22,62,41,10,30.01,29.78,8,2,14,0.00
2013-11-14,41,30,20,19,11,3,68,47,21,29.83,29.75,8,2,15,0.02
2013-11-15,49,37,28,16,-2,-14,60,22,10,29.98,29.83,4,1,8,0.01
2013-11-16,58,43,35,5,-4,-14,25,13,10,30.08,29.95,4,1,8,0.00
2013-11-17,47,42,38,46,28,3,99,64,19,30.07,29.59,10,4,17,0.12
2013-11-18,53,47,35,53,33,10,99,63,22,29.59,29.25,14,4,24,0.22
2013-11-19,35,27,22,19,7,-1,65,43,29,30.06,29.43,12,4,28,0.00
2013-11-20,33,23,17,10,0,-20,60,40,10,30.37,30.06,8,2,14,0.00
2013-11-21,38,28,16,6,-7,-19,60,26,10,30.37,30.10,6,2,9,0.00
2013-11-22,38,32,28,37,22,2,98,71,29,30.10,29.57,5,1,8,0.05
2013-11-23,37,26,14,37,15,-1,98,63,28,29.71,29.48,10,0,23,0.02
2013-11-24,14,11,6,6,-6,-20,69,48,23,29.89,29.54,5,0,24,0.00
2013-11-25,22,13,-1,-4,-19,-31,46,25,10,30.06,29.89,5,1,10,0.00
2013-11-26,31,26,22,25,12,-4,88,57,30,30.00,29.79,8,2,15,0.00
2013-11-27,43,33,26,43,32,23,99,97,88,29.79,29.14,10,1,18,0.34
2013-11-28,26,16,6,23,2,-9,89,56,32,30.10,29.24,0,0,0,0.00
2013-11-29,21,9,1,4,-7,-14,65,49,21,30.44,30.10,0,0,0,0.00
2013-11-30,21,12,-1,8,-12,-29,63,38,10,30.46,30.06,0,0,0,0.00
2013-12-1,32,27,21,26,16,-6,89,63,28,30.07,29.82,0,0,0,0.00
2013-12-2,35,31,28,31,29,25,95,91,84,29.82,29.70,4,0,8,0.05
2013-12-3,37,31,27,35,29,20,98,93,71,29.76,29.69,5,0,8,0.02
2013-12-4,34,28,25,24,19,16,85,69,49,29.95,29.75,5,0,11,0.00
2013-12-5,42,35,26,41,30,18,99,82,61,29.94,29.66,12,4,21,0.01
2013-12-6,42,34,29,42,32,23,99,92,77,29.90,29.68,5,1,11,0.30
2013-12-7,29,23,16,23,2,-14,78,42,18,30.16,29.85,8,2,15,0.00
2013-12-8,23,18,14,-2,-10,-19,41,29,15,30.28,30.15,7,2,14,0.00
2013-12-9,32,23,18,29,14,-6,92,69,33,30.19,29.61,11,3,22,0.00
2013-12-10,31,24,15,28,8,-9,90,52,32,29.65,29.52,7,2,11,0.00
2013-12-11,20,16,6,6,0,-9,62,49,32,29.85,29.65,5,2,14,0.00
2013-12-12,13,6,-2,-4,-15,-29,54,38,16,29.95,29.65,6,1,12,0.00
2013-12-13,14,6,-8,0,-12,-28,59,43,28,30.08,29.57,8,2,13,0.00
2013-12-14,5,-3,-14,-9,-29,-42,51,30,10,30.27,29.90,8,2,11,0.00
2013-12-15,19,15,5,10,5,-9,69,64,51,29.89,29.28,12,2,100,0.01
2013-12-16,15,5,-11,4,-14,-38,65,43,26,29.92,29.43,8,2,16,0.00
2013-12-17,10,-1,-15,-4,-22,-42,51,37,10,29.93,29.73,9,2,14,0.00
2013-12-18,29,16,6,11,1,-7,66,52,30,29.73,29.65,7,1,12,0.00
2013-12-19,31,26,20,18,13,6,71,58,43,29.85,29.66,6,1,13,0.00
2013-12-20,36,32,28,36,25,18,99,76,60,29.86,29.67,9,2,15,0.13
2013-12-21,48,40,34,48,40,33,99,99,99,29.71,29.61,5,1,11,0.34
2013-12-22,41,36,32,41,36,32,99,99,99,29.76,29.49,10,2,17,0.51
2013-12-23,37,33,26,37,33,25,99,99,99,29.90,29.75,6,1,11,0.08
2013-12-24,26,13,0,25,5,-18,99,69,41,29.97,29.83,0,0,0,0.00
2013-12-25,11,3,-5,-14,-20,-28,48,33,16,30.21,29.97,0,0,0,0.00
2013-12-26,23,17,11,13,0,-28,71,51,14,30.11,29.82,0,0,0,0.00
2013-12-27,28,22,16,14,8,-2,72,54,29,29.93,29.88,0,0,0,0.00
2013-12-28,33,26,14,24,14,2,74,61,51,29.88,29.73,4,0,9,0.00
2013-12-29,36,32,26,31,25,19,93,78,50,29.77,29.37,6,2,14,0.14
2013-12-30,33,16,-4,33,4,-25,98,63,33,29.91,29.36,0,0,0,0.00
2013-12-31,11,3,-3,-4,-19,-31,54,34,18,29.89,29.71,0,0,0,0.00
2014-1-1,15,6,-6,-6,-18,-36,50,32,16,30.09,29.81,0,0,0,0.00
2014-1-2,2,-4,-8,-22,-29,-37,31,27,20,30.08,29.65,0,0,0,0.00